Theta_e
323 314 309 312 302 300 294 300 305 305 304 308 311 308 306 307 306 300 318 319 320 321 323 324 328 329 329 328 328 328 328 327 327 327 327 326 325 325 324 324 323 324 325 325 325 325 324 323 323
318 313 313 307 297 292 294 301 303 306 309 311 310 308 306 304 315 316 316 318 319 321 321 321 326 326 326 326 325 325 325 325 325 325 324 324 323 323 323 323 322 322 323 323 323 323 323 323 322
308 310 305 300 296 293 295 301 302 306 310 307 304 308 305 308 316 317 318 318 318 318 318 318 323 323 323 322 322 323 323 323 322 322 323 323 322 321 321 320 320 320 321 321 321 321 320 319 319
305 305 300 295 292 293 298 300 303 305 307 308 306 302 310 318 315 319 317 318 315 314 313 317 321 321 321 320 320 319 320 320 320 320 319 320 320 319 319 318 318 318 318 318 318 318 318 318 317
305 300 294 291 290 292 293 297 304 302 303 305 306 301 304 314 318 317 317 317 312 311 308 309 315 316 317 319 318 318 318 318 318 315 315 316 315 314 313 314 314 313 313 313 313 313 313 312 311
302 299 293 290 289 292 294 294 300 301 303 303 304 301 304 313 315 317 318 317 314 306 304 303 307 313 316 315 316 316 316 317 314 312 311 309 309 308 308 307 309 309 309 309 310 309 309 308 308
299 296 290 288 290 291 293 296 297 299 301 301 306 299 306 311 316 318 316 313 304 302 300 298 298 302 307 312 314 315 314 310 308 307 305 303 303 302 303 303 305 306 306 306 305 306 305 305 304
299 295 289 288 289 290 292 294 298 299 299 306 307 301 300 309 316 315 311 304 300 297 296 295 294 295 296 297 306 309 307 305 303 302 301 299 297 298 298 299 301 302 302 302 302 302 302 301 299
299 293 289 289 290 290 292 292 298 301 299 301 305 304 307 310 314 310 305 301 298 296 293 293 292 292 294 294 296 297 300 300 298 296 297 292 288 289 289 295 298 298 298 298 299 299 298 296 293
296 292 291 289 288 288 289 289 290 293 295 298 300 306 310 310 309 307 303 301 297 293 291 290 290 290 291 295 290 290 291 291 290 289 288 288 287 288 290 290 294 294 294 294 295 295 293 289 285
292 291 290 289 290 289 289 288 287 288 288 292 296 300 309 310 308 307 304 301 297 295 292 290 289 288 289 289 288 287 288 287 288 287 287 287 286 285 285 284 284 284 288 284 285 284 284 284 284
290 291 291 291 290 288 288 288 287 288 291 290 295 300 307 309 310 309 305 302 297 293 291 289 288 287 287 287 286 286 286 286 286 286 287 286 284 284 283 283 283 283 283 282 282 282 283 283 284
289 288 290 290 289 288 289 287 286 286 289 289 295 300 304 308 309 310 306 303 296 292 289 287 286 286 287 286 285 285 285 285 285 284 285 285 284 283 283 283 282 282 282 282 282 283 283 282 283
289 289 287 288 288 289 286 286 284 288 287 286 290 298 301 306 307 306 300 298 293 292 289 287 286 286 286 285 285 285 284 284 284 283 284 285 285 283 283 282 282 282 282 282 282 282 281 282 283
289 287 289 287 288 288 286 284 283 287 288 289 291 296 301 302 303 302 301 297 293 290 289 286 286 286 285 284 284 284 284 284 283 283 283 284 284 283 282 281 281 281 282 282 282 281 282 281 281
284 284 281 285 286 286 285 282 285 286 287 289 289 291 297 300 301 299 297 294 291 289 287 286 289 285 284 284 283 283 283 283 282 282 283 284 284 283 281 280 280 281 281 280 280 279 278 278 279
281 276 279 282 284 283 282 282 285 285 284 285 286 288 291 295 297 297 296 293 290 287 286 285 285 284 284 283 283 282 282 282 282 282 282 282 283 282 280 280 280 280 279 278 278 277 277 277 277
277 278 279 279 282 281 280 282 285 284 284 284 283 283 286 290 295 297 294 290 287 285 284 284 284 283 283 283 282 282 282 282 281 282 282 283 282 281 280 279 278 279 277 276 277 276 277 275 275
279 278 278 280 281 279 277 279 284 285 283 283 282 283 284 284 288 293 291 286 284 283 283 283 282 282 282 281 280 280 279 281 281 283 283 282 281 281 279 277 277 277 276 276 276 275 274 273 274
280 279 278 280 280 279 279 281 283 283 281 282 281 283 286 287 289 288 286 284 283 283 283 282 282 281 281 281 280 280 279 280 280 280 280 280 280 280 277 276 277 276 274 274 273 273 271 272 273
278 278 277 278 280 278 277 282 283 283 282 282 282 282 283 287 288 287 285 283 282 282 281 282 281 280 279 280 279 278 279 279 278 277 277 278 279 277 277 276 275 274 274 272 272 272 270 268 270
278 280 279 279 278 276 278 277 282 282 283 282 283 282 281 282 287 287 285 283 282 280 281 281 280 280 279 278 277 276 275 273 274 275 276 276 277 275 276 275 274 273 273 271 271 271 269 269 267
280 280 279 279 275 276 277 274 282 281 284 284 283 282 281 281 283 282 282 281 280 280 278 278 278 278 277 277 276 275 274 274 275 274 274 274 274 275 274 274 272 272 271 270 270 269 269 269 267
281 280 280 277 275 273 269 274 281 284 284 282 281 281 281 281 280 279 280 280 278 277 277 277 277 277 277 277 276 275 273 273 272 272 272 272 272 273 273 272 272 270 270 269 269 269 268 268 268
281 279 275 276 274 276 263 272 283 285 284 282 283 282 281 281 279 279 278 277 277 276 276 277 277 276 276 275 274 274 274 273 272 271 271 270 270 270 270 270 269 269 269 269 269 268 268 268 267
278 277 276 270 271 275 265 273 284 284 283 282 281 281 281 280 280 279 278 276 276 276 276 276 276 275 275 274 273 274 274 273 272 271 270 270 269 269 270 269 268 268 268 268 268 268 267 268 267
279 275 277 268 259 266 274 279 286 284 283 282 281 280 280 280 279 278 278 276 275 276 275 275 275 275 274 274 273 273 273 272 271 270 270 270 270 269 269 268 268 268 268 268 267 267 267 267 267
279 279 276 273 270 268 274 272 280 284 284 283 283 281 281 280 279 278 277 276 276 275 275 274 274 274 274 273 273 272 272 271 271 270 269 269 269 268 268 267 267 267 267 267 267 266 266 266 266
275 274 275 275 275 270 266 277 282 282 280 281 281 283 281 279 279 279 277 276 276 275 274 274 274 273 273 273 272 271 271 270 270 269 268 268 268 267 266 266 266 266 266 266 266 266 266 266 265
278 277 278 277 274 269 270 273 283 283 278 272 280 282 280 280 281 279 277 276 276 275 274 273 273 273 272 272 271 270 270 269 268 267 267 267 266 266 266 265 265 265 265 265 265 265 265 265 265
Wind_Speed
8 7 2 5 6 6 1 2 1 2 2 2 2 1 1 4 1 2 2 3 3 3 3 4 8 10 11 12 12 13 12 12 11 11 12 12 13 13 13 13 13 13 13 13 13 13 13 14 14
4 4 5 3 6 3 3 3 3 3 3 5 4 3 4 2 2 4 3 4 3 3 2 4 8 9 11 11 11 11 11 12 12 13 13 13 13 13 13 14 14 14 15 15 15 14 14 14 14
2 4 5 5 3 4 4 3 4 1 6 1 2 4 1 2 1 5 3 5 4 3 3 4 7 8 9 11 12 11 11 11 10 11 12 12 11 11 11 13 13 14 14 14 15 15 15 15 15
4 5 5 5 2 1 2 3 2 4 1 1 2 2 2 1 2 4 7 5 4 4 4 6 7 8 9 10 11 11 10 10 10 13 13 13 13 13 14 14 14 15 16 16 17 15 16 17 18
4 4 5 4 0 2 3 2 4 2 3 2 1 2 3 3 3 6 6 5 6 4 4 5 8 9 8 11 11 11 10 8 11 11 12 13 13 13 12 14 14 15 16 16 16 16 16 17 17
4 3 5 2 2 2 4 2 1 1 2 1 2 2 3 3 6 7 6 6 5 5 4 6 8 11 10 9 8 8 7 10 10 12 12 12 13 13 14 14 15 15 15 15 16 16 17 17 18
6 4 2 2 2 2 2 1 1 2 2 3 5 2 2 5 8 8 6 5 6 6 5 4 5 6 9 10 11 9 9 9 10 10 11 13 14 14 14 14 14 14 15 16 16 17 18 19 19
5 6 3 2 3 3 2 1 1 1 3 2 4 6 7 6 10 6 6 6 6 4 3 3 4 5 6 5 10 10 10 9 10 11 11 12 12 12 14 14 15 16 16 17 18 19 20 20 20
1 6 2 3 4 3 4 1 1 1 1 4 5 5 4 1 8 6 4 4 3 2 2 3 4 4 4 4 7 9 10 10 10 9 11 8 4 5 7 13 15 17 17 18 19 19 19 18 16
6 4 4 2 0 2 3 1 1 1 3 6 5 5 3 4 6 8 6 7 4 3 2 2 3 5 5 4 5 5 5 4 4 4 5 4 4 5 7 9 13 14 15 16 18 20 19 14 5
4 3 2 2 3 2 3 4 1 3 7 11 9 6 8 7 7 8 5 5 7 5 3 2 3 4 4 4 2 2 3 3 4 6 4 3 3 3 3 3 3 3 10 4 8 7 5 6 5
5 0 1 2 1 2 4 5 5 7 12 2 8 1 6 11 13 11 7 7 6 6 4 3 3 3 3 2 3 3 3 2 3 3 5 4 3 4 4 2 4 3 3 5 4 3 6 7 6
3 2 1 2 3 5 5 7 7 13 13 7 5 3 7 10 12 11 8 5 6 6 5 5 4 3 3 3 3 3 3 3 3 4 5 4 3 4 4 4 4 4 4 4 4 6 6 8 8
1 1 2 2 3 4 4 5 2 4 4 4 5 8 7 12 13 9 6 7 7 6 7 5 4 3 3 3 3 3 2 3 3 4 5 6 4 4 4 5 5 5 4 5 6 6 7 7 7
1 3 4 1 5 4 3 8 11 7 3 7 7 7 7 8 8 11 8 8 7 3 5 6 5 3 4 3 2 2 3 3 3 3 5 6 5 5 5 4 4 5 5 7 6 7 7 7 8
5 5 6 2 8 3 5 13 3 4 3 9 9 8 8 10 10 7 6 5 6 5 7 6 4 5 4 3 2 2 3 3 3 3 3 5 5 4 5 4 4 5 5 5 5 6 8 8 8
9 2 3 9 5 5 1 13 7 1 8 13 10 9 9 8 5 5 6 7 7 6 6 5 5 4 3 2 2 2 3 3 3 3 3 5 5 7 5 5 4 6 4 5 5 6 7 8 8
4 5 5 6 5 4 8 24 17 11 8 11 10 8 8 7 9 6 7 7 7 6 6 5 4 4 3 2 2 2 3 3 3 3 4 6 6 7 5 4 5 4 4 5 6 8 6 8 9
2 2 5 6 2 7 3 15 22 10 6 6 5 7 7 7 5 3 6 7 7 5 6 5 5 3 3 3 2 2 2 2 3 3 6 5 6 7 7 4 6 5 6 7 8 8 10 8 8
2 2 6 8 2 1 7 23 9 4 3 2 3 4 6 2 3 3 5 5 5 5 4 4 5 6 4 3 2 1 2 2 2 3 5 6 7 7 9 7 6 7 7 8 9 10 9 7 7
2 1 3 6 10 2 9 10 5 2 2 2 1 2 2 4 1 3 6 6 5 4 4 6 6 6 6 6 3 3 2 2 2 4 5 6 6 7 7 6 7 8 7 7 9 8 9 9 8
4 3 2 6 6 4 6 7 8 5 7 4 4 3 2 2 2 2 4 4 4 4 6 7 6 6 6 5 4 4 2 3 3 5 4 6 5 7 7 8 7 8 7 9 8 8 8 8 9
6 1 2 1 1 4 7 5 12 4 8 7 8 7 4 1 3 5 5 6 6 6 6 6 7 7 5 5 4 3 4 3 3 3 7 6 7 7 9 9 9 9 7 8 9 9 9 7 7
3 0 1 3 3 5 4 4 10 4 5 4 4 5 5 4 4 5 5 6 6 6 6 6 6 5 4 4 5 5 4 6 6 6 7 6 6 6 7 10 8 8 8 9 8 9 10 9 8
4 6 6 8 7 6 1 2 15 6 5 5 6 6 7 5 4 3 5 5 5 5 5 4 4 4 5 5 5 7 6 6 7 9 6 10 7 6 8 9 7 7 8 9 9 9 9 10 9
3 3 6 5 3 7 2 8 9 5 4 5 4 5 6 7 5 5 5 5 5 5 4 4 4 3 4 4 5 5 6 5 5 6 7 6 7 7 10 7 9 10 10 9 9 7 8 9 9
3 5 1 8 2 4 4 10 14 4 7 6 7 5 8 7 6 6 6 5 5 5 3 4 3 3 3 4 5 6 7 8 6 8 7 6 8 9 10 10 11 10 10 10 10 8 10 9 10
3 3 4 4 3 7 7 8 9 9 8 7 7 9 9 8 8 6 5 6 4 4 3 3 2 3 3 5 5 7 8 7 7 7 9 9 9 10 11 11 11 11 11 10 10 9 10 11 9
3 3 4 3 4 5 3 11 9 10 6 8 8 8 8 8 8 6 6 6 6 4 2 2 2 3 4 6 7 7 7 8 8 8 9 10 11 11 11 12 12 11 11 11 10 11 12 12 12
1 5 4 6 7 3 3 16 6 10 6 4 10 9 8 5 4 6 8 8 6 4 2 1 1 3 5 5 7 8 8 8 8 9 11 11 11 11 12 12 11 11 11 11 11 11 12 14 14
Wind_Direction
326 307 18 33 61 64 81 251 158 221 259 339 5 302 112 45 122 215 94 84 95 70 18 3 48 44 42 38 37 34 29 25 21 16 12 8 5 5 3 3 2 359 355 350 345 343 343 341 342
335 340 45 72 82 78 264 256 203 229 117 117 50 345 34 84 80 126 161 172 145 87 20 20 45 43 43 36 35 32 27 23 20 16 10 6 5 2 3 359 356 355 352 348 343 343 349 346 341
334 43 72 89 102 163 186 216 200 290 134 62 102 43 53 130 104 154 155 151 135 107 38 23 46 42 39 32 29 27 24 21 19 14 9 3 3 360 357 357 354 353 349 349 349 343 342 343 339
34 21 37 81 171 202 212 206 169 111 263 23 118 56 256 237 210 184 154 152 125 81 31 24 46 36 34 29 28 27 24 23 22 20 10 13 5 11 8 7 360 4 3 358 356 351 357 360 353
36 59 64 73 276 271 252 256 158 173 108 54 289 221 234 211 168 135 154 156 164 116 52 32 41 34 28 27 22 25 22 25 31 22 21 22 19 19 12 7 5 3 1 1 0 360 360 354 351
41 93 65 161 246 279 297 318 188 77 57 167 65 161 250 164 170 174 173 178 148 126 65 37 26 38 47 30 28 21 21 36 28 24 24 23 21 19 19 13 12 9 3 4 0 358 354 350 348
106 71 114 122 194 288 221 159 62 103 166 241 135 236 246 233 205 175 173 121 98 76 62 43 33 42 45 42 41 36 49 43 34 31 33 31 26 27 24 19 13 9 7 3 1 357 350 348 346
98 93 90 227 197 259 19 71 176 138 237 116 170 223 246 223 177 145 109 103 96 85 70 47 44 44 49 41 42 45 48 45 42 38 39 38 31 27 21 17 9 8 6 1 359 356 351 349 347
99 67 150 223 154 293 357 64 307 202 198 221 213 207 247 32 130 120 127 131 120 115 78 43 38 46 48 60 39 39 38 37 36 31 27 30 23 10 22 6 9 6 3 358 355 351 349 345 340
67 97 193 67 311 282 287 252 251 298 223 256 271 248 279 146 164 173 180 181 194 202 194 97 57 44 44 50 32 34 36 36 35 29 20 21 18 1 14 4 5 4 359 354 350 346 346 344 329
358 111 108 213 204 239 269 290 250 214 261 220 210 233 196 195 198 198 190 185 199 197 172 121 75 67 61 49 41 27 25 22 20 19 6 354 3 351 352 351 346 340 349 342 341 334 331 322 318
83 128 220 216 257 273 245 315 270 202 237 98 227 137 173 209 212 215 207 194 183 188 177 119 94 82 69 65 46 35 30 30 19 2 358 5 352 341 339 343 331 333 322 327 317 308 310 308 301
75 204 7 245 280 276 313 262 252 260 257 277 295 220 208 218 223 227 218 199 178 184 165 173 142 116 103 76 53 38 29 23 16 12 3 10 352 343 337 340 333 331 324 308 309 318 316 315 308
78 143 249 265 340 296 303 281 25 274 8 313 250 247 231 222 221 223 198 205 188 171 184 162 148 136 111 93 80 61 41 31 22 9 358 6 15 360 0 345 342 334 332 329 323 311 315 308 300
162 333 339 38 1 318 300 283 232 286 309 307 287 263 258 231 210 218 209 201 181 171 154 168 155 138 102 89 92 77 35 37 25 0 5 19 7 8 354 336 332 327 328 320 320 318 310 316 312
42 49 11 32 357 355 39 277 296 24 23 306 299 274 254 245 226 223 211 174 171 156 171 164 152 125 110 125 93 54 44 36 16 8 18 3 3 6 352 335 323 320 316 318 319 318 322 311 315
16 299 329 320 52 315 132 278 271 338 345 296 274 256 251 255 254 233 202 184 173 162 147 143 148 145 137 97 88 61 48 28 11 8 16 360 5 356 346 330 319 322 328 318 312 324 308 317 315
309 336 317 259 334 355 263 264 279 280 272 277 290 288 285 270 245 224 186 162 146 139 137 151 144 134 98 54 11 18 19 10 7 9 7 6 358 342 331 314 317 315 314 315 319 316 326 319 314
278 270 273 265 2 323 254 286 291 292 231 256 313 341 307 272 291 203 159 129 116 125 152 155 143 88 56 37 12 9 348 331 350 16 5 355 340 337 336 338 324 327 331 328 329 330 322 319 324
191 291 296 282 264 325 327 292 278 271 246 244 318 341 347 11 28 75 112 120 154 152 140 110 95 70 56 62 28 20 308 293 325 10 346 349 335 346 334 332 329 345 330 333 337 333 321 321 342
330 277 323 257 318 248 315 297 335 255 264 219 93 339 345 334 288 140 157 162 137 101 113 113 97 86 60 48 25 357 332 340 343 340 326 335 339 340 330 333 341 341 343 332 328 321 345 320 320
299 154 256 283 11 280 17 280 310 322 300 246 234 247 277 2 63 125 145 125 121 101 92 89 89 81 69 48 43 26 354 325 323 322 308 315 332 328 332 338 338 332 330 318 320 327 319 316 314
259 292 248 258 104 7 356 65 269 357 300 268 233 226 216 86 75 76 83 105 88 98 104 92 82 72 61 55 37 17 349 320 297 299 315 330 329 328 332 328 331 326 323 313 309 312 315 310 306
307 219 96 68 101 26 271 88 282 247 224 293 268 241 220 176 123 100 89 95 94 79 73 72 75 75 55 46 26 3 346 330 332 335 329 328 321 321 322 323 315 321 308 309 311 310 305 303 294
25 39 343 357 7 232 269 12 246 266 258 242 273 252 226 196 185 154 133 114 99 95 88 101 74 66 39 26 9 355 347 336 333 332 326 323 318 318 316 312 323 308 305 303 305 303 298 297 290
20 113 144 245 273 280 32 236 254 224 258 255 254 254 191 200 194 192 169 148 136 107 85 77 46 47 31 10 353 340 343 337 330 324 318 306 310 315 310 316 312 304 301 301 299 297 294 293 299
342 40 135 98 72 25 267 289 293 280 291 273 263 247 240 223 201 190 168 158 140 129 106 70 48 34 11 350 346 342 340 331 316 313 306 310 311 311 313 311 304 301 298 300 300 294 293 294 293
101 164 32 12 340 295 296 277 243 301 296 321 308 269 256 235 198 184 160 158 142 120 121 96 46 17 341 354 350 338 322 317 314 315 317 313 310 312 308 306 303 301 300 301 297 295 296 296 289
30 15 35 126 139 210 298 268 216 241 238 273 288 285 265 238 203 172 165 156 147 135 118 64 21 337 353 356 335 326 320 318 318 316 315 315 314 312 309 304 302 301 302 301 300 297 297 295 294
126 189 167 122 273 224 158 262 214 233 246 206 280 274 280 253 160 156 163 162 156 146 90 43 320 350 9 338 328 323 319 322 322 322 320 320 315 312 307 307 304 304 303 302 299 302 298 289 289